This is the latest recevied weather packets stored in our database for station/object IW3HBX-3. If no packets are shown the sender has not sent any weather packets the latest 1 day(s).
| Time | Temp. | Humidity | Pressure | Rain* | Wind** | Luminosity | Snow |
|---|---|---|---|---|---|---|---|
| 1788604461 | 28.89° C | 64% | 1017.4 hPa | 0 mm | - | 600 W/m² | - |
| 1788604161 | 28.89° C | 65% | 1017.7 hPa | 0 mm | - | 691 W/m² | - |
| 1788603861 | 28.89° C | 65% | 1017.5 hPa | 0 mm | - | 685 W/m² | - |
| 1788603561 | 28.89° C | 65% | 1017.5 hPa | 0 mm | - | 339 W/m² | - |
| 1788603261 | 29.44° C | 65% | 1017.5 hPa | 0 mm | - | 698 W/m² | - |
| 1788602961 | 28.89° C | 64% | 1017.6 hPa | 0 mm | - | 525 W/m² | - |
| 1788602661 | 28.89° C | 66% | 1017.5 hPa | 0 mm | - | 705 W/m² | - |
| 1788602361 | 28.89° C | 67% | 1017.5 hPa | 0 mm | - | 327 W/m² | - |
| 1788602061 | 28.33° C | 67% | 1017.5 hPa | 0 mm | - | 313 W/m² | - |
| 1788601760 | 27.78° C | 70% | 1017.5 hPa | 0 mm | - | 386 W/m² | - |
| 1788601460 | 27.78° C | 69% | 1017.6 hPa | 0 mm | - | 341 W/m² | - |
| 1788601160 | 27.78° C | 70% | 1017.7 hPa | 0 mm | - | 254 W/m² | - |
| 1788600860 | 27.78° C | 69% | 1017.8 hPa | 0 mm | - | 262 W/m² | - |
| 1788600260 | 28.33° C | 70% | 1017.5 hPa | 0 mm | - | 349 W/m² | - |
| 1788599660 | 28.89° C | 66% | 1017.5 hPa | 0 mm | - | 347 W/m² | - |
| 1788599360 | 28.33° C | 70% | 1017.5 hPa | 0 mm | - | 359 W/m² | - |
| 1788599060 | 28.33° C | 71% | 1017.5 hPa | 0 mm | - | 610 W/m² | - |
| 1788598760 | 27.78° C | 70% | 1017.6 hPa | 0 mm | - | 428 W/m² | - |
| 1788598460 | 27.22° C | 72% | 1017.5 hPa | 0 mm | - | 468 W/m² | - |
| 1788598159 | 27.22° C | 76% | 1017.5 hPa | 0 mm | - | 638 W/m² | - |
| 1788597860 | 27.78° C | 73% | 1017.4 hPa | 0 mm | - | 431 W/m² | - |
| 1788597559 | 27.78° C | 71% | 1017.3 hPa | 0 mm | - | 534 W/m² | - |
| 1788597259 | 27.78° C | 77% | 1017.2 hPa | 0 mm | - | 387 W/m² | - |
| 1788596959 | 27.22° C | 77% | 1017.2 hPa | 0 mm | - | 342 W/m² | - |
| 1788596659 | 28.33° C | 72% | 1017.1 hPa | 0 mm | - | 364 W/m² | - |
* Rain latest hour (hover to see other rain measurements)
** Current wind speed in m/s (hover to see current wind gust speed)